This is the latest recevied weather packets stored in our database for station/object LIPZ. If no packets are shown the sender has not sent any weather packets the latest 10 day(s).
| Time | Temp. | Humidity | Pressure | Rain* | Wind** | Luminosity | Snow |
|---|---|---|---|---|---|---|---|
| 1788547503 | 27.78° C | 61% | 1016 hPa | - | - | - | - |
| 1788546604 | 27.78° C | 61% | 1016 hPa | - | - | - | - |
| 1788545703 | 28.89° C | 58% | 1016 hPa | - | - | - | - |
| 1788543904 | 28.89° C | 58% | 1016 hPa | - | - | - | - |
| 1788542103 | 28.89° C | 58% | 1016 hPa | - | - | - | - |
| 1788541204 | 28.89° C | 58% | 1016 hPa | - | - | - | - |
| 1788537604 | 28.89° C | 62% | 1017 hPa | - | - | - | - |
| 1788536703 | 28.89° C | 58% | 1017 hPa | - | - | - | - |
| 1788534903 | 30° C | 55% | 1017 hPa | - | - | - | - |
| 1788534004 | 30° C | 55% | 1017 hPa | - | - | - | - |
| 1788532204 | 30° C | 58% | 1018 hPa | - | - | - | - |
| 1788529503 | 28.89° C | 65% | 1018 hPa | - | - | - | - |
| 1788528603 | 28.89° C | 65% | 1018 hPa | - | - | - | - |
| 1788527703 | 28.89° C | 62% | 1018 hPa | - | - | - | - |
| 1788526803 | 28.89° C | 62% | 1018 hPa | - | - | - | - |
| 1788525903 | 28.89° C | 58% | 1018 hPa | - | - | - | - |
| 1788523204 | 28.89° C | 58% | 1019 hPa | - | - | - | - |
| 1788517803 | 28.89° C | 48% | 1019 hPa | - | - | - | - |
| 1788515103 | 27.22° C | 61% | 1019 hPa | - | - | - | - |
| 1788514204 | 27.22° C | 61% | 1019 hPa | - | - | - | - |
| 1788513303 | 27.22° C | 57% | 1019 hPa | - | - | - | - |
| 1788512404 | 27.22° C | 57% | 1019 hPa | - | - | - | - |
| 1788506104 | 22.78° C | 68% | 1019 hPa | - | - | - | - |
| 1788504303 | 22.22° C | 78% | 1019 hPa | - | - | - | - |
| 1788503436 | 22.22° C | 78% | 1019 hPa | - | - | - | - |
* Rain since midnight (hover to see other rain measurements)
** Current wind speed in m/s (hover to see current wind gust speed)